Leadville, CO

7:26 PM MST on November 19, 2019 (GMT -0700)
Lake County

Weather History for KLXV - September, 2019

Change the Weather History Date:

Thursday, September 19, 2019

  Actual Average Record
Temperature  
Mean Temperature 48 °F -  
Max Temperature 67 °F 60 °F 75 °F (2010)
Min Temperature 29 °F 30 °F 19 °F (1988)
Degree Days  
Heating Degree Days 17 20  
Month to date heating degree days 256 334  
Since 1 July heating degree days 849 1056  
Cooling Degree Days 0 0  
Month to date cooling degree days 0 0  
Year to date cooling degree days 0 0  
Moisture  
Dew Point 27 °F    
Average Humidity 50    
Maximum Humidity 78    
Minimum Humidity 22    
Precipitation  
Precipitation 0.00 in 0.04 in 0.22 in (1999)
Month to date precipitation 0.31 0.75  
Year to date precipitation 12.85 9.70  
Sea Level Pressure  
Sea Level Pressure 29.91 in    
Wind  
Wind Speed 8 mph (South)    
Max Wind Speed 25 mph    
Max Gust Speed 36 mph    
Visibility 7 miles    
Events      
T = Trace of Precipitation, MM = Missing Value Source: NWS Daily Summary

Daily Weather History Graph

Daily Weather History Graph

Search for Another Location

Airport or City:

Astronomy

Sep. 19, 2019 Rise Set
Actual Time 6:50 AM MDT 7:07 PM MDT
Civil Twilight 6:23 AM MDT 7:34 PM MDT
Nautical Twilight 5:51 AM MDT 8:05 PM MDT
Astronomical Twilight 5:19 AM MDT 8:37 PM MDT
Moon 10:20 PM MDT (9/19) 11:54 AM MDT (9/19)
Length of Visible Light 13h 10m
Length of Day
12h 17m
Waning Gibbous, 74% of the Moon is Illuminated
Sep 19
Waning Gibbous
Sep 21
Last Quarter
Sep 28
New
Oct 5
First Quarter
Oct 13
Full

Hourly Weather History & Observations

Time (MDT) Temp. Windchill Dew Point Humidity Pressure Visibility Wind Dir Wind Speed Gust Speed Precip Events Conditions
12:53 AM 42.1 °F - 28.0 °F 58% 29.90 in 10.0 mi Calm Calm - N/A   Clear
1:53 AM 37.0 °F 34.5 °F 27.0 °F 67% 29.92 in 10.0 mi ESE 3.5 mph - N/A   Clear
2:53 AM 35.1 °F - 26.1 °F 70% 29.93 in 10.0 mi Calm Calm - N/A   Clear
3:53 AM 39.0 °F - 28.0 °F 65% 29.89 in 10.0 mi Calm Calm - N/A   Clear
4:53 AM 37.0 °F 34.5 °F 28.0 °F 70% 29.91 in 10.0 mi SE 3.5 mph - N/A   Clear
5:53 AM 35.1 °F - 28.0 °F 76% 29.94 in 10.0 mi Calm Calm - N/A   Clear
6:53 AM 30.0 °F - 25.0 °F 82% 29.99 in 6.0 mi Calm Calm - N/A   Haze
7:44 AM 33.1 °F - 26.1 °F 75% 30.34 in 2.5 mi Calm Calm - N/A   Haze
7:53 AM 36.0 °F - 27.0 °F 70% 30.01 in 1.8 mi Calm Calm - N/A   Haze
8:07 AM 39.0 °F - 28.9 °F 67% 30.35 in 3.0 mi Calm Calm - N/A   Haze
8:53 AM 46.9 °F - 30.9 °F 54% 29.95 in 4.0 mi SSW 3.5 mph - N/A   Haze
9:03 AM 48.0 °F - 32.0 °F 54% 30.35 in 1.5 mi South 4.6 mph - N/A   Haze
9:13 AM 50.0 °F - 32.0 °F 50% 30.34 in 8.0 mi SSW 4.6 mph - N/A   Clear
9:53 AM 55.0 °F - 32.0 °F 42% 29.88 in 7.0 mi South 11.5 mph 18.4 mph N/A   Clear
10:53 AM 59.0 °F - 28.9 °F 32% 29.88 in 10.0 mi South 12.7 mph 24.2 mph N/A   Clear
11:53 AM 63.0 °F - 28.0 °F 27% 29.81 in 5.0 mi South 17.3 mph 28.8 mph N/A   Haze
12:53 PM 64.9 °F - 27.0 °F 24% 29.79 in - South 19.6 mph 32.2 mph N/A   Clear
1:53 PM 64.9 °F - 28.0 °F 25% 29.80 in - SSW 13.8 mph 24.2 mph N/A   Partly Cloudy
2:53 PM 66.0 °F - 26.1 °F 22% 29.78 in - SW 16.1 mph 24.2 mph N/A   Partly Cloudy
3:53 PM 64.9 °F - 25.0 °F 22% 29.74 in - SW 15.0 mph 26.5 mph N/A   Scattered Clouds
4:53 PM 64.9 °F - 25.0 °F 22% 29.74 in - SSW 9.2 mph 24.2 mph N/A   Partly Cloudy
5:53 PM 63.0 °F - 26.1 °F 25% 29.76 in - South 18.4 mph 27.6 mph N/A   Partly Cloudy
6:53 PM 59.0 °F - 27.0 °F 29% 29.82 in - South 8.1 mph - N/A   Clear
7:53 PM 55.0 °F - 25.0 °F 31% 29.81 in - SSE 8.1 mph - N/A   Clear
8:53 PM 52.0 °F - 24.1 °F 34% 29.76 in - Calm Calm - N/A   Clear
9:53 PM 50.0 °F - 24.1 °F 36% 29.73 in - SE 6.9 mph - N/A   Clear
10:53 PM 52.0 °F - 26.1 °F 37% 29.69 in - SE 6.9 mph - N/A   Clear
11:53 PM 52.0 °F - 28.9 °F 41% 29.66 in - SSE 10.4 mph - N/A   Clear